Disclaimer

Please do not use the information listed here in-flight or in-navigation, as they are not provided to us by the airports but are provided by volunteers, so they might be outdated.

Search


Regions


Airport information page

No radio frequency information is available.

Airport informations:
Latitude: 45° 13' 00.80" N
Longitude: 014° 34' 12.96" E
Elevation: 278 feet - 85 meters
Operating hours: Remarks
Operating agency: Civil government, landing fees and diplomatic clearance may be required
Timezone: UTC+1(+2DT) - Last Sunday in March to last Sunday in October
Fuel: Jet A, without icing inhibitor.

100/130 MIL Spec, low lead, aviation gasoline (BLUE)

Runway information:
14/32 - 8164 x 148 feet< - >2488 x 45 meters

Recent METARs:
LDRI 221900Z 05014KT 020V090 9999 FEW020 OVC050 03/M06 Q1002
LDRI 221930Z 03016G27KT 350V060 9999 FEW020 OVC050 03/M06 Q1002
LDRI 222000Z 04016G28KT 010V080 9999 -SN FEW020 OVC050 03/M06 Q1002

Airport on the map: